Location: Tr�vern
(48.0333°N, 4.6000°W)
Time: 07:10:22
(UTC+00:00)

Cosmos 1980 Rocket - Pass Details

Date: 14 July 2020
Orbit: 828 x 851 km, 71.0° (Epoch: 04 August)

Event Time Altitude Azimuth Distance (km) Brightness Sun altitude
Rises 01:38:46 0° 336° (NNW) 3,430 6.1 -18.4°
Reaches altitude 10° 01:41:30 10° 346° (NNW) 2,490 5.5 -18.2°
Maximum altitude 01:46:38 33° 50° (NE) 1,395 3.9 -17.9°
Drops below altitude 10° 01:51:44 10° 114° (ESE) 2,472 4.6 -17.6°
Sets 01:54:25 0° 123° (ESE) 3,401 5.2 -17.5°
